THOR ABLESTAR DEB, 715

Orbit data source: Space-Track

THOR ABLESTAR DEB, 715 is space debris in LEO originally from a launch on Thu, 05 Dec 1963 UTC launched from the Air Force Western Test Range (AFWTR). Debris objects in space refer to the collection of defunct objects orbiting the Earth. Examples of debris include non-operational satellites, rocket bodies, and fragments generated from explosions, collisions, or faulty payload assembly.

Loading next visibility...
Identifier
715, 1963-049E
Orbit
LEO
Country
Flag of USUS
Related business
Manufacturer
Unknown
Mission
Spacecraft
Bus & Motor
Unknown
Mass
Unknown
Launch date (UTC)
1963-12-05 (62 years ago)
Launch vehicle
Unknown
Launch site
Air Force Western Test Range (AFWTR)
Object type
Payload
Rocket body
Debris
Shape & HBR
Unknown shape, 0.1 m
Radar Cross Section
Small (<0.1 m²)

Expand to show TLE details & history
Last TLE update: 12 hours ago

TLE from 12 hours ago
0 THOR ABLESTAR DEB
1 00715U 63049E   25340.52425616  .00001426  00000-0  14724-2 0  9993
2 00715  89.9110  79.4024 0028879  27.2130 345.3734 13.75298130 76908
Epoch: 2025-12-06T12:34Z
TLE epoch observation values (Epoch: 2025-12-06T12:34:55.732Z)
Latitude
12.46126°
Longitude
175.13899°
Altitude
962.284 km
Speed
7.382 km/s
True Right ascension
05h 17m 41s
True Declination
12° 23' 28"
Sunlit
Object was in full shadow at epoch
Visualization orbit readout
Latitude
Unknown
Longitude
Unknown
Altitude
Unknown
Speed
Unknown
Apparent Right ascension
Unknown
Apparent Declination
Unknown
Sunlit
N/A
Visualization observer readout
Local Sidereal Time
22:57:29
Azimuth
Unknown
Elevation
Unknown
Doppler factor
Unknown
Orbital elements
Apogee altitude
998.867 km
Perigee altitude
956.381 km
Semi-major axis
7,355.761 km
Eccentricity
0.00289
Inclination
89.911°
RAAN
79.4024°
Arg. of periapsis
27.213°
True anomaly
345.28954°
Mean anomaly
345.3734°
Eccentric anomaly
345.3315°
Mean motion
3.44034 °/min
Orbital period
104.64 mins
BSTAR
0.0014724
Loading maneuver chart data...
Computing Atmospheric mass density...
Loading historical data...
Loading historical data...
Loading historical data...
Loading historical data...
Loading historical data...
Loading historical data...
Loading historical data...

Documentation

Showing up to 5 results
|